Location: Newark
(48.8656°N, 2.3211°E)
Time: 02:07:19
(UTC+00:00)

Envisat - Pass Details

Date: 14 December 2019
Orbit: 764 x 766 km, 98.1° (Epoch: 23 January)

Event Time Altitude Azimuth Distance (km) Brightness Sun altitude
Rises 16:48:55 0° 140° (SE) 3,224 6.1 -8.6°
Reaches altitude 10° 16:51:20 10° 133° (SE) 2,302 5.3 -9.0°
Maximum altitude 16:55:59 38° 66° (ENE) 1,166 3.5 -9.7°
Drops below altitude 10° 17:00:40 10° 360° (N) 2,316 5.3 -10.4°
Sets 17:03:06 0° 353° (N) 3,247 6.1 -10.7°
